TimeEDT,TemperatureF,Dew PointF,Humidity,Sea Level PressureIn,VisibilityMPH,Wind Direction,Wind SpeedMPH,Gust SpeedMPH,PrecipitationIn,Events,Conditions,WindDirDegrees,DateUTC
12:15 AM,68.0,64.4,88,29.98,10.0,Calm,Calm,-,0.00,,Overcast,0,2013-10-11 04:15:00
12:35 AM,68.0,62.6,83,29.98,10.0,Calm,Calm,-,0.00,,Overcast,0,2013-10-11 04:35:00
12:55 AM,68.0,62.6,83,29.97,10.0,Calm,Calm,-,0.00,,Overcast,0,2013-10-11 04:55:00
1:15 AM,68.0,64.4,88,29.97,10.0,Calm,Calm,-,0.00,,Overcast,0,2013-10-11 05:15:00
1:35 AM,66.2,64.4,94,29.97,10.0,Calm,Calm,-,0.00,,Overcast,0,2013-10-11 05:35:00
1:55 AM,66.2,64.4,94,29.98,10.0,Calm,Calm,-,0.00,,Overcast,0,2013-10-11 05:55:00
2:15 AM,66.2,64.4,94,29.98,10.0,Calm,Calm,-,0.00,,Overcast,0,2013-10-11 06:15:00
2:55 AM,66.2,64.4,94,29.98,10.0,Calm,Calm,-,0.00,,Overcast,0,2013-10-11 06:55:00
3:15 AM,66.2,64.4,94,29.97,10.0,Calm,Calm,-,0.00,,Overcast,0,2013-10-11 07:15:00
3:35 AM,66.2,64.4,94,29.97,10.0,Calm,Calm,-,0.00,,Overcast,0,2013-10-11 07:35:00
3:55 AM,66.2,64.4,94,29.97,10.0,Calm,Calm,-,0.00,,Overcast,0,2013-10-11 07:55:00
4:15 AM,66.2,64.4,94,29.97,10.0,Calm,Calm,-,0.00,,Overcast,0,2013-10-11 08:15:00
4:35 AM,66.2,64.4,94,29.97,10.0,Calm,Calm,-,0.00,,Overcast,0,2013-10-11 08:35:00
4:55 AM,66.2,64.4,94,29.97,10.0,Calm,Calm,-,0.00,,Overcast,0,2013-10-11 08:55:00
5:15 AM,66.2,64.4,94,29.97,10.0,Calm,Calm,-,0.00,,Overcast,0,2013-10-11 09:15:00
5:35 AM,66.2,64.4,94,29.98,10.0,Calm,Calm,-,0.00,,Overcast,0,2013-10-11 09:35:00
5:55 AM,66.2,64.4,94,29.98,10.0,Calm,Calm,-,0.00,,Overcast,0,2013-10-11 09:55:00
6:15 AM,66.2,64.4,94,29.98,10.0,Calm,Calm,-,0.00,,Overcast,0,2013-10-11 10:15:00
6:35 AM,66.2,64.4,94,29.99,10.0,Calm,Calm,-,0.00,,Overcast,0,2013-10-11 10:35:00
6:55 AM,64.4,64.4,100,29.99,10.0,Calm,Calm,-,0.00,,Overcast,0,2013-10-11 10:55:00
7:15 AM,64.4,64.4,100,29.99,10.0,Calm,Calm,-,0.00,,Overcast,0,2013-10-11 11:15:00
7:35 AM,64.4,64.4,100,30.00,10.0,Calm,Calm,-,0.00,,Overcast,0,2013-10-11 11:35:00
7:55 AM,64.4,64.4,100,30.00,10.0,Calm,Calm,-,0.00,,Overcast,0,2013-10-11 11:55:00
8:15 AM,66.2,62.6,88,30.00,10.0,Calm,Calm,-,0.00,,Overcast,0,2013-10-11 12:15:00
8:35 AM,66.2,62.6,88,30.01,10.0,Calm,Calm,-,0.00,,Overcast,0,2013-10-11 12:35:00
8:55 AM,66.2,62.6,88,30.01,10.0,Calm,Calm,-,0.00,,Overcast,0,2013-10-11 12:55:00
9:15 AM,66.2,62.6,88,30.01,10.0,Calm,Calm,-,0.00,,Overcast,0,2013-10-11 13:15:00
9:35 AM,69.8,62.6,78,30.01,10.0,NW,5.8,-,0.00,,Overcast,320,2013-10-11 13:35:00
9:55 AM,69.8,62.6,78,30.02,10.0,NW,3.5,-,0.00,,Mostly Cloudy,310,2013-10-11 13:55:00
10:15 AM,71.6,60.8,69,30.01,10.0,NNW,5.8,-,0.00,,Scattered Clouds,330,2013-10-11 14:15:00
10:35 AM,73.4,60.8,65,30.01,10.0,NNW,5.8,-,0.00,,Clear,330,2013-10-11 14:35:00
10:55 AM,73.4,60.8,65,30.01,10.0,NW,8.1,-,0.00,,Clear,320,2013-10-11 14:55:00
11:15 AM,75.2,60.8,61,30.01,10.0,NNW,3.5,-,0.00,,Clear,330,2013-10-11 15:15:00
11:35 AM,77.0,60.8,57,30.00,10.0,NNW,8.1,-,0.00,,Clear,340,2013-10-11 15:35:00
11:55 AM,78.8,60.8,54,30.00,10.0,West,11.5,-,0.00,,Partly Cloudy,270,2013-10-11 15:55:00
12:15 PM,78.8,60.8,54,29.99,10.0,West,6.9,-,0.00,,Clear,270,2013-10-11 16:15:00
12:35 PM,78.8,59.0,51,29.99,10.0,NW,9.2,-,0.00,,Clear,310,2013-10-11 16:35:00
12:55 PM,80.6,60.8,51,29.98,10.0,WNW,4.6,-,0.00,,Clear,300,2013-10-11 16:55:00
1:15 PM,78.8,60.8,54,29.97,10.0,West,8.1,-,0.00,,Partly Cloudy,270,2013-10-11 17:15:00
1:35 PM,80.6,60.8,51,29.96,10.0,WNW,9.2,-,0.00,,Scattered Clouds,290,2013-10-11 17:35:00
1:55 PM,80.6,59.0,48,29.95,10.0,West,5.8,-,0.00,,Scattered Clouds,270,2013-10-11 17:55:00
2:15 PM,80.6,60.8,51,29.94,10.0,WNW,10.4,-,0.00,,Scattered Clouds,300,2013-10-11 18:15:00
2:35 PM,80.6,60.8,51,29.93,10.0,WNW,6.9,-,0.00,,Partly Cloudy,290,2013-10-11 18:35:00
2:55 PM,80.6,60.8,51,29.93,10.0,West,9.2,-,0.00,,Partly Cloudy,280,2013-10-11 18:55:00
3:15 PM,82.4,60.8,48,29.93,10.0,West,11.5,-,0.00,,Partly Cloudy,260,2013-10-11 19:15:00
3:35 PM,82.4,60.8,48,29.93,10.0,WNW,10.4,-,0.00,,Partly Cloudy,300,2013-10-11 19:35:00
3:55 PM,82.4,60.8,48,29.92,10.0,West,8.1,-,0.00,,Partly Cloudy,260,2013-10-11 19:55:00
4:15 PM,82.4,59.0,45,29.92,10.0,WSW,8.1,-,0.00,,Partly Cloudy,250,2013-10-11 20:15:00
4:35 PM,82.4,59.0,45,29.92,10.0,West,6.9,-,0.00,,Clear,260,2013-10-11 20:35:00
4:55 PM,82.4,60.8,48,29.92,10.0,West,9.2,-,0.00,,Clear,260,2013-10-11 20:55:00
5:15 PM,82.4,59.0,45,29.92,10.0,WSW,10.4,-,0.00,,Scattered Clouds,250,2013-10-11 21:15:00
5:35 PM,82.4,60.8,48,29.92,10.0,West,6.9,-,0.00,,Overcast,260,2013-10-11 21:35:00
5:55 PM,82.4,60.8,48,29.92,10.0,WNW,5.8,-,0.00,,Overcast,300,2013-10-11 21:55:00
6:15 PM,78.8,62.6,57,29.93,10.0,NNE,9.2,-,0.00,,Overcast,30,2013-10-11 22:15:00
6:35 PM,75.2,62.6,65,29.93,10.0,NE,6.9,-,0.00,,Overcast,40,2013-10-11 22:35:00
6:55 PM,75.2,62.6,65,29.94,10.0,NE,5.8,-,0.00,,Overcast,50,2013-10-11 22:55:00
7:15 PM,75.2,62.6,65,29.95,10.0,ENE,4.6,-,0.00,,Overcast,70,2013-10-11 23:15:00
7:35 PM,73.4,64.4,73,29.95,10.0,East,3.5,-,0.00,,Overcast,90,2013-10-11 23:35:00
7:55 PM,73.4,64.4,73,29.95,10.0,Calm,Calm,-,0.00,,Overcast,0,2013-10-11 23:55:00
8:15 PM,73.4,64.4,73,29.96,10.0,Calm,Calm,-,0.00,,Overcast,0,2013-10-12 00:15:00
8:35 PM,73.4,64.4,73,29.97,10.0,Calm,Calm,-,0.00,,Overcast,0,2013-10-12 00:35:00
8:55 PM,71.6,64.4,78,29.97,10.0,Calm,Calm,-,0.00,,Overcast,0,2013-10-12 00:55:00
9:15 PM,71.6,64.4,78,29.98,10.0,East,3.5,-,0.00,,Overcast,80,2013-10-12 01:15:00
9:35 PM,71.6,64.4,78,29.98,10.0,Calm,Calm,-,0.00,,Overcast,0,2013-10-12 01:35:00
9:55 PM,71.6,64.4,78,29.98,10.0,Calm,Calm,-,0.00,,Overcast,0,2013-10-12 01:55:00
10:15 PM,71.6,64.4,78,29.98,10.0,ENE,3.5,-,0.00,,Overcast,70,2013-10-12 02:15:00
10:35 PM,71.6,62.6,73,29.98,10.0,Calm,Calm,-,0.00,,Overcast,0,2013-10-12 02:35:00
10:55 PM,71.6,62.6,73,29.98,10.0,ENE,4.6,-,0.00,,Mostly Cloudy,60,2013-10-12 02:55:00
11:15 PM,69.8,62.6,78,29.98,10.0,ENE,3.5,-,0.00,,Overcast,70,2013-10-12 03:15:00
11:35 PM,69.8,62.6,78,29.98,10.0,Calm,Calm,-,0.00,,Overcast,0,2013-10-12 03:35:00
11:55 PM,69.8,62.6,78,29.98,10.0,Calm,Calm,-,0.00,,Overcast,0,2013-10-12 03:55:00